Location: Unspecified
(0.0000°N, 0.0000°E)
Time: 07:49:59
(UTC+02:00)

IUS-9 SRM-1 - Visible Passes

Search period start: 30 March 2015 00:00
Search period end: 09 April 2015 00:00
Orbit: 262 x 20461 km, 26.5° (Epoch: 29 March)

Date Brightness Start Highest point End Pass type
(mag) Time Alt. Az. Time Alt. Az. Time Alt. Az.
30 Mar 7.2 17:22:37 10° WNW 21:36:05 68° SSW 22:09:58 20° SE visible
31 Mar 7.2 17:18:58 10° WNW 21:31:58 68° SSW 22:06:45 19° SE visible
01 Apr 7.2 17:15:13 10° WNW 21:27:41 68° SSW 22:03:27 18° SE visible
02 Apr 7.3 17:11:22 10° WNW 21:23:17 67° SSW 22:00:03 18° SE visible
03 Apr 7.3 17:07:24 10° WNW 21:18:43 67° SSW 21:56:33 17° SE visible
04 Apr 7.3 17:03:21 10° WNW 21:14:00 67° SSW 21:52:58 16° SE visible
05 Apr 7.3 16:59:11 10° WNW 21:09:07 67° SSW 21:49:17 16° SE visible
06 Apr 7.3 16:54:55 10° WNW 21:04:05 67° SSW 21:45:31 15° SE visible
07 Apr 7.3 16:50:34 10° WNW 20:58:52 67° SSW 21:41:39 14° SE visible
08 Apr 7.3 16:46:06 10° WNW 20:53:29 67° SSW 21:37:42 13° SE visible
